Regional Weather Roundup
Issued by NWS

Home | Current Version | Previous Version | Text Only | Print | Product List | Glossary On
Versions: 1 2 3 4 5 6 7 8 9 10 11 12 13 14 15 16 17 18 19 20 21 22 23 24 25 26 27 28 29 30 31 32 33 34 35 36 37 38 39 40 41 42 43 44 45 46 47 48 49 50
000
ASUS43 KDMX 011107
RWRIA

WEATHER ROUNDUP FOR IOWA
NATIONAL WEATHER SERVICE DES MOINES IA
600 AM CDT FRI AUG 01 2014

NOTE: "FAIR" INDICATES FEW OR NO CLOUDS BELOW 12,000 FEET WITH NO
SIGNIFICANT WEATHER AND/OR OBSTRUCTIONS TO VISIBILITY.

* - THESE STATIONS ARE NOT NWS STATIONS...THUS NOT UNDER NWS
QUALITY CONTROL.  THEY ALSO DO NOT REPORT WEATHER SUCH
AS PRECIPITATION OR FOG.

IAZ001>003-012>014-020>022-031>034-043>046-011200-
   NORTHWEST IOWA

CITY           SKY/WX    TMP DP  RH WIND       PRES   REMARKS
CARROLL *      MOCLDY    52  52 100 CALM      30.08R
CHEROKEE *     CLEAR     55  55 100 CALM      30.08S
DENISON *      CLEAR     55  55 100 CALM      30.06R
LE MARS *      CLEAR     54  52  94 CALM      30.08S
ORANGE CITY *  CLEAR     63  57  82 CALM      30.08S
SHELDON *      CLEAR     52  52 100 CALM      30.08R
SIOUX CITY     FOG       54  53  97 CALM      30.07S VSB 1/4
SPENCER        CLEAR     54  52  93 CALM      30.08S
STORM LAKE *   CLEAR     59  59 100 SW5       30.09R
$$

IAZ055>058-069>071-079>083-090>094-011200-
   SOUTHWEST IOWA

CITY           SKY/WX    TMP DP  RH WIND       PRES   REMARKS
ATLANTIC *     CLOUDY    63  61  94 CALM      30.06S
AUDUBON *      CLEAR     59  55  88 CALM      30.09R
CLARINDA *     CLOUDY    64  63  94 CALM      30.09S
COUNCIL BLFS * PTCLDY    64  63  94 E7        30.05S
CRESTON *      MOCLDY    63  61  94 CALM      30.09R
HARLAN  *      PTCLDY    59  59 100 CALM      30.10S FOG
LAMONI         MOCLDY    64  59  83 NW6       30.09R
RED OAK *      CLOUDY    64  63  94 CALM      30.07S
SHENANDOAH *   CLOUDY    64  63  94 SE10      30.06F
$$

IAZ047>049-059>061-072>074-084-011200-
   CENTRAL IOWA

CITY           SKY/WX    TMP DP  RH WIND       PRES   REMARKS
AMES           CLEAR     56  55  97 MISG      30.08R
ANKENY *       MOCLDY    57  57 100 CALM      30.08S
CHARITON *     CLOUDY    59  59 100 W5        30.08S
DES MOINES     PTCLDY    63  60  90 CALM      30.07R
GRINNELL*      CLEAR     57  55  94 CALM      30.08S
KNOXVILLE *    CLEAR     64  61  88 CALM      30.06S
MARSHALLTOWN   CLEAR     56  54  93 W3        30.07R
PELLA *        PTCLDY    61  61 100 CALM      30.08S
PERRY *          N/A     57  55  94 CALM      30.09R
$$

IAZ004>006-015-016-023>025-035-036-011200-
   NORTH CENTRAL IOWA

CITY           SKY/WX    TMP DP  RH WIND       PRES   REMARKS
ALGONA *       CLEAR     59  57  94 SW5       30.08S
CLARION *      PTCLDY    55  55 100 CALM      30.08R
ESTHERVILLE    CLEAR     57  56  96 SW3       30.07S
FORT DODGE *   MOCLDY    55  54  94 CALM      30.09S VSB 3/4
MASON CITY     PTCLDY    54  54 100 CALM      30.09R
FOREST CITY *    N/A     52  52 100 CALM      30.07S FOG
IOWA FALLS *     N/A     55  54  94 CALM      30.08S
$$

IAZ007>011-017>019-026>030-037>042-050>054-066-011200-
   NORTHEAST IOWA

CITY           SKY/WX    TMP DP  RH WIND       PRES   REMARKS
CEDAR RAPIDS   CLEAR     58  57  97 S3        30.06S
CHARLES CITY * CLEAR     57  55  94 CALM      30.07S FOG
CLINTON *      PTCLDY    61  59  94 W5        30.11R
DECORAH *      CLEAR     57  55  94 CALM      30.06S
DUBUQUE        CLEAR     57  56  96 CALM      30.07S
MONTICELLO *   CLEAR     54  54 100 CALM      30.06F
OELWEIN *      FOG       57  57 100 CALM      30.08R VSB 1/4
WATERLOO       CLEAR     57  55  93 CALM      30.06R
$$

IAZ064-065-067-068-078-011200-
   EAST CENTRAL IOWA

CITY           SKY/WX    TMP DP  RH WIND       PRES   REMARKS
DAVENPORT      CLOUDY    64  59  83 CALM      30.09R
IOWA CITY      CLEAR     61  60  97 CALM      30.08S
MT. PLEASANT * MOCLDY    64  63  94 CALM      30.07S
MUSCATINE *    CLOUDY    66  63  88 CALM      30.07R
QUAD CITIES    LGT RAIN  64  57  78 S15       30.07R
$$

IAZ062-063-075>077-085>089-095>099-011200-
   SOUTHEAST IOWA

CITY           SKY/WX    TMP DP  RH WIND       PRES   REMARKS
BURLINGTON     CLOUDY    65  63  93 CALM      30.06S
FAIRFIELD *    PTCLDY    63  59  88 CALM      30.07S
FORT MADISON * PTCLDY    64  63  94 CALM      30.07F
KEOKUK *       CLOUDY    63  61  94 CALM      30.07R
OSKALOOSA *      N/A     59  57  94 CALM      30.07S
CENTERVILLE *  MOCLDY    61  61 100 SW3       30.09R
OTTUMWA        PTCLDY    62  59  90 CALM      30.06S
WASHINGTON *   CLEAR     63  63 100 S3        30.07S FOG
$$

ABBREVIATIONS USED IN REMARKS
   TC - TEMPERATURES IN CELSIUS
  WCI - WIND CHILL INDEX
   HX - HEAT INDEX
  VSB - VISIBILITY
$$



USA.gov is the U.S. government's official web portal to all federal, state and local government web resources and services.